GFSNGP_prec_pwat_036.txt.gz
Precipitable_Water
0.47 0.51 0.50 0.37 0.34 0.34 0.27 0.32 0.26 0.29 0.31 0.40 0.42 0.42 0.41 0.48 0.51 0.57 0.65 0.78 0.86 0.95 1.23 1.26 1.14 1.21 1.28 1.35 1.44 1.54 1.52 1.56 1.55 1.62 1.62 1.56 1.47 1.41 1.40 1.34 1.30 1.32 1.35 1.43
0.48 0.56 0.57 0.48 0.39 0.36 0.33 0.31 0.35 0.34 0.36 0.46 0.48 0.45 0.47 0.50 0.56 0.61 0.67 0.75 0.85 1.02 1.15 1.30 1.35 1.24 1.19 1.23 1.37 1.49 1.49 1.49 1.61 1.65 1.69 1.63 1.61 1.56 1.54 1.49 1.43 1.43 1.42 1.40
0.40 0.55 0.53 0.45 0.45 0.40 0.37 0.36 0.35 0.33 0.41 0.49 0.48 0.48 0.47 0.46 0.51 0.55 0.60 0.64 0.69 0.74 0.81 0.99 1.15 1.37 1.26 1.23 1.36 1.40 1.37 1.43 1.52 1.61 1.62 1.66 1.69 1.66 1.61 1.57 1.60 1.51 1.50 1.48
0.43 0.53 0.43 0.52 0.58 0.51 0.45 0.39 0.39 0.41 0.45 0.53 0.59 0.58 0.59 0.57 0.52 0.52 0.56 0.59 0.60 0.61 0.68 0.79 0.90 1.11 1.29 1.39 1.32 1.26 1.33 1.37 1.48 1.58 1.60 1.67 1.67 1.66 1.65 1.63 1.61 1.62 1.66 1.64
0.40 0.48 0.54 0.54 0.54 0.50 0.47 0.46 0.50 0.45 0.48 0.58 0.58 0.60 0.58 0.61 0.58 0.53 0.54 0.56 0.59 0.60 0.60 0.66 0.85 0.97 1.08 1.06 1.15 1.18 1.19 1.23 1.31 1.43 1.51 1.55 1.52 1.60 1.71 1.72 1.65 1.66 1.69 1.71
0.41 0.40 0.37 0.51 0.57 0.61 0.58 0.43 0.61 0.57 0.56 0.57 0.56 0.47 0.68 0.86 0.87 0.83 0.86 0.86 0.81 0.76 0.71 0.57 0.70 0.75 1.01 1.02 1.13 1.10 1.14 1.12 1.24 1.30 1.31 1.40 1.50 1.59 1.74 1.78 1.72 1.74 1.71 1.73
0.37 0.37 0.46 0.60 0.61 0.61 0.46 0.65 0.85 0.79 0.71 0.64 0.60 0.81 0.93 0.96 0.91 0.91 0.89 0.88 0.87 0.78 0.73 0.74 0.74 0.75 0.77 0.93 1.00 1.06 1.13 1.18 1.19 1.23 1.22 1.32 1.52 1.64 1.67 1.72 1.76 1.68 1.67 1.75
0.36 0.34 0.39 0.63 0.61 0.57 0.79 0.89 0.81 0.80 0.80 0.80 0.83 0.88 0.95 0.97 0.97 0.93 0.89 0.93 0.91 0.80 0.76 0.82 0.88 0.73 0.66 0.71 0.75 0.83 0.96 1.10 1.16 1.25 1.28 1.32 1.44 1.61 1.68 1.66 1.68 1.64 1.63 1.64
0.37 0.38 0.52 0.57 0.57 0.63 0.62 0.66 0.79 0.76 0.74 0.78 0.74 0.75 0.78 0.84 0.96 1.05 1.08 1.09 1.02 0.86 0.72 0.74 1.01 0.87 0.65 0.74 0.87 0.85 0.91 0.96 1.04 1.18 1.27 1.33 1.43 1.58 1.63 1.65 1.65 1.64 1.61 1.59
0.38 0.41 0.46 0.51 0.54 0.56 0.58 0.56 0.65 0.73 0.71 0.70 0.73 0.75 0.73 0.74 0.86 1.05 1.23 1.16 1.34 1.22 1.11 1.05 0.99 1.02 0.98 0.91 0.93 1.00 0.97 1.01 1.05 1.08 1.17 1.29 1.43 1.64 1.61 1.57 1.56 1.62 1.63 1.65
0.40 0.45 0.47 0.47 0.50 0.53 0.53 0.56 0.56 0.62 0.66 0.68 0.71 0.70 0.75 0.76 0.87 1.08 1.17 1.30 1.24 1.23 1.29 1.31 1.30 1.24 1.24 1.23 1.17 1.02 1.01 1.09 1.12 1.16 1.22 1.34 1.44 1.48 1.66 1.73 1.72 1.67 1.70 1.69
0.33 0.44 0.48 0.48 0.53 0.54 0.53 0.52 0.56 0.57 0.60 0.68 0.67 0.65 0.71 0.77 0.94 0.96 0.97 1.21 1.18 1.18 1.25 1.29 1.26 1.19 1.24 1.28 1.31 1.23 1.13 1.15 1.15 1.21 1.31 1.37 1.43 1.43 1.55 1.66 1.73 1.71 1.66 1.66
0.39 0.45 0.48 0.51 0.56 0.58 0.57 0.58 0.58 0.61 0.61 0.61 0.66 0.69 0.70 0.76 1.04 1.01 1.00 1.22 1.19 1.21 1.27 1.29 1.23 1.13 1.13 1.21 1.32 1.29 1.25 1.29 1.32 1.33 1.47 1.46 1.47 1.44 1.37 1.48 1.51 1.54 1.53 1.48
0.64 0.58 0.41 0.39 0.42 0.54 0.57 0.58 0.57 0.56 0.57 0.59 0.64 0.65 0.64 0.67 1.03 1.01 0.97 1.16 1.26 1.32 1.30 1.25 1.24 1.20 1.28 1.31 1.24 1.29 1.27 1.32 1.27 1.31 1.35 1.40 1.43 1.41 1.41 1.36 1.33 1.37 1.42 1.39
0.70 0.71 0.66 0.66 0.51 0.49 0.55 0.55 0.54 0.49 0.53 0.57 0.60 0.63 0.63 0.68 0.97 1.04 1.18 1.26 1.23 1.33 1.28 1.28 1.27 1.26 1.27 1.24 1.19 1.19 1.20 1.18 1.19 1.18 1.20 1.23 1.24 1.22 1.21 1.19 1.17 1.16 1.18 1.21
0.61 0.67 0.64 0.67 0.67 0.51 0.52 0.55 0.52 0.50 0.50 0.50 0.52 0.62 0.68 1.01 0.97 1.15 1.28 1.40 1.21 1.17 1.30 1.31 1.30 1.34 1.37 1.30 1.16 1.10 1.13 1.15 1.14 1.09 1.08 1.08 1.08 1.08 1.09 1.08 1.07 1.07 1.04 1.01
0.69 0.60 0.62 0.66 0.65 0.57 0.54 0.55 0.55 0.53 0.52 0.50 0.66 0.72 0.84 0.98 0.98 1.06 1.17 1.21 1.19 1.12 1.33 1.34 1.34 1.44 1.44 1.37 1.33 1.30 1.19 1.17 1.18 1.15 1.15 1.16 1.17 1.15 1.14 1.13 1.11 1.09 1.08 1.12
0.83 0.79 0.79 0.74 0.65 0.62 0.61 0.60 0.59 0.63 0.60 0.66 0.81 0.91 0.94 0.95 1.00 1.10 1.15 1.11 1.20 1.30 1.31 1.35 1.43 1.38 1.35 1.34 1.34 1.32 1.34 1.31 1.30 1.20 1.18 1.20 1.20 1.19 1.18 1.13 1.09 1.10 1.15 1.19
0.84 0.80 0.80 0.78 0.81 0.80 0.77 0.75 0.74 0.73 0.77 0.90 0.84 0.90 0.88 1.00 1.22 1.10 1.15 1.16 1.14 1.14 1.16 1.24 1.25 1.26 1.32 1.42 1.39 1.35 1.34 1.34 1.35 1.30 1.25 1.24 1.19 1.20 1.19 1.19 1.19 1.24 1.26 1.28
0.81 0.83 0.84 0.85 0.83 0.84 0.84 0.87 0.86 0.86 0.89 0.90 0.83 0.81 0.78 0.87 1.11 1.11 1.19 1.19 1.11 1.15 1.20 1.19 1.26 1.25 1.31 1.40 1.49 1.43 1.38 1.35 1.32 1.31 1.31 1.28 1.27 1.24 1.25 1.26 1.27 1.26 1.26 1.27
0.76 0.81 0.80 0.82 0.84 0.88 0.91 0.94 0.93 0.84 0.90 0.94 0.87 0.83 0.99 1.06 1.07 1.12 1.13 1.09 1.22 1.21 1.24 1.26 1.24 1.26 1.25 1.25 1.28 1.30 1.37 1.38 1.36 1.32 1.30 1.27 1.26 1.25 1.25 1.26 1.27 1.29 1.30 1.32
0.68 0.69 0.75 0.79 0.81 0.83 0.88 0.87 0.85 0.86 0.89 0.91 0.96 0.99 1.02 1.02 1.05 1.10 1.15 1.15 1.20 1.24 1.18 1.19 1.23 1.23 1.19 1.16 1.13 1.13 1.20 1.22 1.22 1.25 1.26 1.23 1.21 1.19 1.21 1.24 1.24 1.26 1.28 1.29
0.61 0.62 0.66 0.67 0.67 0.73 0.79 0.81 0.83 0.84 0.84 0.87 0.89 0.91 0.94 0.98 0.98 0.95 0.95 1.06 1.11 1.09 1.11 1.13 1.18 1.21 1.24 1.25 1.22 1.20 1.19 1.18 1.18 1.24 1.22 1.20 1.17 1.16 1.16 1.18 1.18 1.19 1.18 1.17
0.47 0.56 0.58 0.63 0.64 0.63 0.58 0.62 0.67 0.72 0.74 0.75 0.81 0.85 0.85 0.84 0.84 0.86 0.86 0.86 0.88 0.88 0.90 0.94 0.98 1.02 1.05 1.09 1.14 1.14 1.15 1.16 1.16 1.17 1.15 1.10 1.09 1.08 1.09 1.08 1.05 1.05 1.06 1.09
0.39 0.48 0.48 0.48 0.51 0.55 0.56 0.57 0.58 0.58 0.57 0.59 0.61 0.63 0.64 0.66 0.66 0.69 0.71 0.70 0.68 0.67 0.68 0.70 0.70 0.74 0.78 0.82 0.87 0.95 1.01 1.04 1.07 1.09 1.09 1.08 1.06 1.05 1.05 1.02 0.99 0.97 0.94 0.93
0.38 0.41 0.43 0.43 0.43 0.43 0.44 0.45 0.43 0.46 0.47 0.46 0.45 0.46 0.47 0.46 0.46 0.48 0.50 0.50 0.51 0.53 0.54 0.52 0.55 0.58 0.60 0.62 0.64 0.66 0.67 0.73 0.81 0.84 0.88 0.93 0.94 0.94 0.96 0.96 0.95 0.92 0.87 0.78
0.41 0.37 0.40 0.40 0.40 0.39 0.38 0.37 0.35 0.33 0.35 0.38 0.37 0.38 0.38 0.38 0.38 0.38 0.39 0.39 0.40 0.41 0.41 0.41 0.42 0.44 0.46 0.49 0.51 0.55 0.59 0.62 0.64 0.66 0.65 0.67 0.71 0.77 0.79 0.79 0.76 0.73 0.71 0.69

GFSNGP_prec_pwat_042.txt.gz
Precipitable_Water
0.38 0.42 0.45 0.42 0.41 0.39 0.34 0.29 0.23 0.23 0.24 0.29 0.34 0.43 0.40 0.36 0.34 0.42 0.59 0.75 0.89 1.01 1.09 1.21 1.27 1.28 1.16 1.04 1.15 1.16 1.12 1.08 1.04 1.07 1.11 1.14 1.13 1.13 1.13 1.14 1.15 1.12 1.08 1.14
0.34 0.45 0.47 0.42 0.43 0.41 0.37 0.32 0.28 0.28 0.29 0.36 0.43 0.59 0.45 0.41 0.42 0.48 0.55 0.69 0.83 0.99 1.07 1.18 1.24 1.23 1.12 1.09 1.13 1.29 1.22 1.20 1.23 1.25 1.26 1.24 1.20 1.15 1.17 1.15 1.10 1.13 1.12 1.14
0.33 0.48 0.50 0.42 0.48 0.49 0.40 0.36 0.32 0.27 0.34 0.42 0.50 0.62 0.58 0.53 0.51 0.54 0.60 0.71 0.83 0.92 1.02 1.13 1.21 1.26 1.14 1.17 1.23 1.29 1.33 1.38 1.38 1.37 1.37 1.41 1.45 1.43 1.36 1.23 1.18 1.10 1.10 1.15
0.38 0.47 0.35 0.53 0.64 0.62 0.53 0.50 0.51 0.45 0.41 0.53 0.64 0.75 0.76 0.78 0.71 0.66 0.73 0.85 0.97 1.03 1.11 1.26 1.35 1.41 1.43 1.40 1.32 1.23 1.30 1.37 1.47 1.56 1.55 1.56 1.57 1.54 1.48 1.51 1.44 1.32 1.22 1.21
0.40 0.44 0.49 0.55 0.63 0.59 0.55 0.53 0.59 0.57 0.57 0.66 0.74 0.69 0.79 0.93 0.94 0.87 0.88 0.90 0.97 1.08 1.14 1.26 1.37 1.46 1.50 1.50 1.45 1.31 1.32 1.29 1.42 1.49 1.48 1.54 1.55 1.61 1.65 1.63 1.58 1.55 1.52 1.47
0.44 0.43 0.41 0.57 0.70 0.77 0.73 0.50 0.65 0.70 0.69 0.75 0.72 0.55 0.78 1.02 1.03 1.01 1.02 0.99 0.93 1.00 1.00 1.07 1.23 1.41 1.48 1.46 1.47 1.27 1.20 1.25 1.45 1.52 1.48 1.42 1.45 1.51 1.59 1.68 1.68 1.74 1.65 1.66
0.43 0.47 0.57 0.71 0.81 0.84 0.56 0.60 0.75 0.71 0.70 0.70 0.69 0.77 0.94 1.10 1.05 1.12 1.10 1.10 1.11 1.00 0.97 0.98 1.09 1.13 1.19 1.28 1.32 1.47 1.47 1.48 1.53 1.49 1.47 1.52 1.48 1.48 1.50 1.52 1.57 1.61 1.61 1.70
0.47 0.47 0.48 0.77 0.81 0.65 0.70 0.74 0.78 0.73 0.70 0.69 0.76 0.85 0.94 1.03 1.01 1.05 1.05 1.11 1.17 1.10 1.06 1.09 1.07 1.07 1.00 1.12 1.34 1.45 1.48 1.51 1.49 1.48 1.49 1.53 1.49 1.49 1.51 1.50 1.45 1.44 1.45 1.49
0.53 0.52 0.69 0.78 0.83 0.87 0.75 0.75 0.82 0.77 0.73 0.75 0.75 0.79 0.91 0.98 1.06 1.07 1.06 1.08 1.18 1.14 1.17 1.19 1.15 1.15 1.12 1.25 1.29 1.29 1.41 1.46 1.52 1.54 1.55 1.55 1.50 1.47 1.46 1.49 1.44 1.41 1.40 1.38
0.47 0.57 0.61 0.75 0.83 0.90 0.83 0.77 0.82 0.82 0.80 0.77 0.76 0.81 0.85 0.92 1.01 1.07 1.11 1.07 1.15 1.16 1.11 1.12 1.14 1.12 1.19 1.27 1.31 1.24 1.09 1.21 1.31 1.31 1.38 1.45 1.48 1.45 1.40 1.36 1.34 1.36 1.39 1.41
0.46 0.51 0.57 0.65 0.79 0.80 0.88 0.83 0.78 0.76 0.79 0.80 0.79 0.81 0.81 0.85 0.94 0.97 1.05 1.09 1.14 1.16 1.16 1.17 1.21 1.16 1.20 1.21 1.21 1.15 1.10 1.02 0.99 1.07 1.07 1.10 1.21 1.27 1.30 1.34 1.32 1.25 1.32 1.41
0.40 0.55 0.59 0.61 0.73 0.81 0.78 0.82 0.80 0.74 0.72 0.75 0.83 0.84 0.81 0.81 0.87 0.93 0.91 1.07 1.06 1.13 1.15 1.18 1.19 1.11 1.12 1.22 1.23 1.19 1.17 1.15 1.10 1.05 1.08 1.15 1.14 1.15 1.33 1.38 1.39 1.44 1.46 1.54
0.55 0.64 0.67 0.65 0.67 0.76 0.77 0.74 0.86 0.75 0.71 0.71 0.75 0.83 0.85 0.79 0.82 0.84 0.95 0.89 0.94 0.98 1.18 1.19 1.17 1.11 1.09 1.12 1.16 1.16 1.13 1.13 1.17 1.21 1.17 1.12 1.17 1.17 1.11 1.24 1.29 1.34 1.48 1.58
0.69 0.69 0.58 0.65 0.57 0.65 0.72 0.77 0.83 0.90 0.81 0.77 0.77 0.81 0.84 0.86 0.84 0.83 0.94 1.06 1.04 1.01 1.08 1.15 1.16 1.07 1.12 1.14 1.22 1.18 1.18 1.17 1.21 1.30 1.34 1.37 1.36 1.27 1.24 1.22 1.23 1.27 1.38 1.47
0.67 0.70 0.70 0.71 0.71 0.64 0.62 0.65 0.63 0.72 0.83 0.76 0.75 0.77 0.81 0.85 0.85 0.85 0.93 1.06 1.07 1.11 1.14 1.17 1.15 1.13 1.18 1.15 1.16 1.16 1.26 1.21 1.25 1.34 1.42 1.42 1.47 1.55 1.55 1.48 1.40 1.37 1.33 1.34
0.64 0.65 0.65 0.65 0.64 0.66 0.69 0.65 0.62 0.61 0.66 0.74 0.82 0.76 0.79 0.83 0.86 0.87 0.93 1.02 0.99 0.98 1.07 1.05 1.12 1.20 1.24 1.19 1.18 1.24 1.26 1.30 1.37 1.36 1.41 1.51 1.54 1.54 1.55 1.53 1.46 1.41 1.35 1.33
0.59 0.58 0.62 0.62 0.66 0.63 0.65 0.67 0.66 0.65 0.63 0.67 0.78 0.90 0.86 0.81 0.83 0.84 0.91 1.02 1.06 1.01 1.02 1.06 1.15 1.24 1.22 1.18 1.23 1.26 1.27 1.30 1.31 1.36 1.37 1.40 1.44 1.43 1.43 1.44 1.43 1.41 1.40 1.41
0.71 0.72 0.73 0.73 0.69 0.68 0.68 0.71 0.71 0.70 0.68 0.72 0.76 0.78 0.78 0.75 0.74 0.76 0.82 0.89 1.04 1.00 1.01 1.07 1.14 1.19 1.23 1.25 1.22 1.38 1.29 1.25 1.22 1.20 1.24 1.27 1.33 1.39 1.43 1.42 1.41 1.37 1.35 1.31
0.73 0.71 0.73 0.74 0.74 0.74 0.71 0.69 0.68 0.69 0.71 0.71 0.67 0.66 0.68 0.67 0.70 0.75 0.77 0.77 0.81 0.92 0.99 1.06 1.21 1.22 1.22 1.25 1.24 1.26 1.32 1.29 1.27 1.25 1.25 1.25 1.22 1.23 1.23 1.21 1.19 1.17 1.16 1.13
0.67 0.71 0.73 0.73 0.75 0.73 0.70 0.72 0.73 0.73 0.75 0.74 0.69 0.64 0.62 0.63 0.66 0.72 0.77 0.71 0.74 0.87 0.97 0.98 1.05 1.11 1.15 1.18 1.23 1.28 1.32 1.29 1.18 1.27 1.23 1.24 1.22 1.18 1.16 1.15 1.13 1.12 1.13 1.14
0.59 0.65 0.67 0.69 0.70 0.74 0.75 0.74 0.72 0.69 0.70 0.70 0.69 0.68 0.66 0.70 0.73 0.70 0.71 0.74 0.80 0.88 0.96 0.98 1.05 1.13 1.17 1.17 1.23 1.22 1.23 1.27 1.34 1.27 1.24 1.21 1.20 1.16 1.15 1.16 1.16 1.15 1.14 1.14
0.52 0.55 0.59 0.62 0.66 0.67 0.73 0.76 0.77 0.76 0.75 0.76 0.72 0.70 0.69 0.71 0.75 0.75 0.81 0.79 0.84 0.92 0.97 0.96 1.02 1.06 1.12 1.10 1.08 1.28 1.33 1.32 1.38 1.39 1.36 1.32 1.28 1.19 1.14 1.13 1.11 1.11 1.12 1.12
0.49 0.52 0.50 0.52 0.55 0.60 0.66 0.69 0.69 0.70 0.73 0.74 0.74 0.73 0.72 0.74 0.78 0.78 0.74 0.83 0.87 0.88 0.93 0.95 1.02 1.11 1.12 1.17 1.35 1.38 1.36 1.33 1.30 1.31 1.26 1.24 1.18 1.11 1.08 1.05 1.05 1.06 1.06 1.06
0.44 0.47 0.48 0.51 0.51 0.51 0.52 0.60 0.62 0.62 0.61 0.66 0.71 0.75 0.75 0.70 0.73 0.77 0.84 0.90 0.93 0.92 0.91 0.93 1.03 1.04 1.12 1.17 1.20 1.23 1.14 1.13 1.15 1.14 1.16 1.16 1.11 1.07 1.02 1.03 1.01 1.01 1.00 0.99
0.46 0.43 0.43 0.43 0.40 0.38 0.39 0.43 0.48 0.53 0.53 0.53 0.55 0.62 0.65 0.69 0.68 0.70 0.66 0.77 0.83 0.91 0.96 0.96 0.96 0.97 1.00 1.07 1.09 1.10 1.10 1.12 1.15 1.12 1.09 1.09 1.09 1.06 1.03 1.02 0.99 0.96 0.94 0.93
0.41 0.40 0.39 0.38 0.38 0.35 0.34 0.35 0.35 0.37 0.40 0.43 0.47 0.51 0.53 0.57 0.57 0.61 0.62 0.59 0.63 0.68 0.76 0.87 0.93 0.98 1.01 0.99 0.98 0.99 0.99 1.01 1.03 1.03 1.02 1.01 1.01 0.97 0.92 0.92 0.92 0.90 0.88 0.86
0.39 0.38 0.36 0.36 0.37 0.35 0.33 0.33 0.32 0.33 0.35 0.36 0.37 0.41 0.46 0.48 0.47 0.50 0.52 0.54 0.53 0.54 0.61 0.65 0.68 0.70 0.74 0.77 0.81 0.87 0.89 0.89 0.88 0.87 0.86 0.86 0.84 0.80 0.77 0.73 0.70 0.67 0.63 0.57

GFSNGP_prec_pwat_045.txt.gz
Precipitable_Water
0.40 0.45 0.46 0.45 0.45 0.44 0.41 0.40 0.30 0.26 0.24 0.26 0.29 0.32 0.37 0.41 0.41 0.38 0.43 0.50 0.67 0.79 0.91 1.07 1.22 1.32 1.39 1.32 1.20 1.16 1.19 1.20 1.09 1.12 1.14 1.13 1.11 1.10 1.13 1.15 1.10 1.09 1.11 1.13
0.35 0.43 0.45 0.44 0.49 0.48 0.45 0.42 0.40 0.32 0.28 0.35 0.44 0.47 0.46 0.51 0.47 0.38 0.49 0.52 0.61 0.78 0.88 1.03 1.16 1.25 1.32 1.27 1.22 1.20 1.15 1.06 1.06 1.07 1.08 1.10 1.10 1.11 1.11 1.10 1.11 1.09 1.04 1.02
0.30 0.43 0.46 0.43 0.52 0.53 0.50 0.50 0.42 0.32 0.34 0.44 0.45 0.50 0.60 0.62 0.57 0.41 0.43 0.51 0.67 0.77 0.89 0.99 1.14 1.25 1.27 1.17 1.09 1.16 1.22 1.19 1.14 1.13 1.11 1.12 1.12 1.11 1.12 1.09 1.09 1.06 1.05 1.04
0.36 0.41 0.32 0.52 0.66 0.60 0.53 0.51 0.49 0.45 0.49 0.56 0.60 0.74 0.80 0.87 0.76 0.63 0.58 0.64 0.71 0.80 0.90 1.03 1.18 1.29 1.35 1.25 1.15 1.21 1.35 1.41 1.43 1.37 1.34 1.40 1.41 1.34 1.34 1.36 1.28 1.15 1.07 1.11
0.37 0.39 0.49 0.57 0.63 0.61 0.54 0.49 0.55 0.54 0.62 0.76 0.78 0.78 0.81 0.99 0.98 0.89 0.81 0.80 0.86 0.91 0.94 1.13 1.19 1.32 1.36 1.22 1.24 1.21 1.24 1.36 1.42 1.52 1.53 1.55 1.52 1.48 1.48 1.49 1.47 1.43 1.42 1.37
0.43 0.40 0.40 0.59 0.71 0.75 0.68 0.47 0.61 0.61 0.65 0.69 0.75 0.59 0.79 1.03 1.08 1.05 1.00 0.97 0.94 1.04 1.13 1.22 1.29 1.39 1.39 1.37 1.32 1.28 1.20 1.27 1.44 1.58 1.58 1.56 1.61 1.63 1.67 1.70 1.62 1.64 1.60 1.60
0.43 0.44 0.54 0.74 0.75 0.78 0.51 0.52 0.65 0.66 0.65 0.74 0.74 0.86 1.04 1.14 1.16 1.21 1.17 1.16 1.19 1.19 1.19 1.26 1.32 1.38 1.39 1.46 1.38 1.43 1.51 1.39 1.51 1.61 1.62 1.65 1.66 1.69 1.63 1.59 1.65 1.67 1.69 1.75
0.47 0.46 0.46 0.80 0.77 0.62 0.67 0.73 0.69 0.69 0.71 0.71 0.83 1.00 1.06 1.08 1.11 1.17 1.17 1.22 1.23 1.17 1.23 1.26 1.30 1.41 1.43 1.47 1.58 1.63 1.59 1.46 1.50 1.53 1.66 1.62 1.57 1.59 1.58 1.51 1.45 1.46 1.49 1.55
0.49 0.52 0.70 0.79 0.80 0.84 0.83 0.72 0.72 0.71 0.73 0.74 0.78 0.87 0.97 1.00 1.04 1.10 1.17 1.23 1.30 1.24 1.23 1.29 1.35 1.38 1.38 1.53 1.59 1.52 1.48 1.46 1.41 1.43 1.50 1.60 1.57 1.54 1.46 1.50 1.44 1.39 1.37 1.37
0.54 0.60 0.66 0.69 0.81 0.86 0.89 0.82 0.79 0.77 0.76 0.76 0.78 0.83 0.89 0.98 1.00 1.03 1.12 1.19 1.29 1.27 1.23 1.25 1.36 1.36 1.37 1.47 1.54 1.48 1.45 1.51 1.56 1.54 1.53 1.63 1.66 1.63 1.56 1.59 1.45 1.37 1.36 1.35
0.52 0.58 0.65 0.69 0.78 0.87 0.91 0.91 0.82 0.78 0.77 0.76 0.79 0.82 0.85 0.92 0.98 1.03 1.04 1.16 1.26 1.26 1.27 1.25 1.27 1.22 1.22 1.23 1.25 1.20 1.22 1.27 1.31 1.37 1.47 1.54 1.62 1.56 1.57 1.57 1.55 1.42 1.41 1.46
0.47 0.62 0.64 0.67 0.82 0.89 0.89 0.94 0.91 0.78 0.71 0.74 0.79 0.81 0.84 0.86 0.96 1.04 1.04 1.07 1.14 1.19 1.23 1.29 1.30 1.27 1.23 1.19 1.16 1.05 1.02 1.07 1.10 1.14 1.18 1.25 1.27 1.26 1.37 1.41 1.46 1.52 1.57 1.56
0.61 0.68 0.73 0.75 0.80 0.91 0.89 0.92 1.02 0.92 0.81 0.71 0.75 0.83 0.86 0.83 0.86 0.93 0.94 0.96 1.01 1.07 1.21 1.25 1.25 1.22 1.21 1.16 1.09 1.04 0.97 0.99 1.01 1.07 1.14 1.11 1.07 1.03 0.98 1.14 1.34 1.44 1.52 1.56
0.71 0.68 0.61 0.68 0.65 0.75 0.77 0.82 0.96 1.05 0.95 0.88 0.83 0.81 0.86 0.85 0.84 0.80 0.82 0.90 0.97 1.02 1.09 1.17 1.21 1.18 1.21 1.19 1.12 1.05 1.02 1.05 1.03 1.06 1.16 1.23 1.21 1.17 1.13 1.08 1.11 1.20 1.37 1.40
0.67 0.71 0.69 0.70 0.72 0.70 0.73 0.75 0.81 0.92 0.97 0.88 0.86 0.86 0.87 0.87 0.85 0.85 0.85 0.86 0.88 0.90 0.97 1.09 1.12 1.17 1.26 1.25 1.16 1.10 1.13 1.15 1.17 1.17 1.21 1.33 1.35 1.35 1.32 1.28 1.25 1.23 1.25 1.31
0.63 0.67 0.67 0.65 0.66 0.69 0.68 0.67 0.66 0.70 0.87 0.95 0.83 0.83 0.92 0.94 0.93 0.95 0.95 0.91 0.80 0.76 0.82 0.88 1.02 1.17 1.24 1.25 1.18 1.13 1.16 1.20 1.21 1.23 1.23 1.27 1.40 1.40 1.39 1.38 1.36 1.36 1.35 1.34
0.55 0.52 0.55 0.57 0.60 0.64 0.68 0.72 0.71 0.73 0.76 0.77 0.90 0.87 0.93 0.93 0.96 0.91 0.94 0.96 0.92 0.89 0.93 0.93 0.91 1.07 1.26 1.25 1.17 1.24 1.16 1.13 1.12 1.17 1.24 1.30 1.33 1.39 1.53 1.45 1.50 1.44 1.44 1.45
0.62 0.64 0.64 0.63 0.60 0.59 0.62 0.69 0.73 0.74 0.76 0.83 0.86 0.84 0.86 0.88 0.80 0.87 0.93 0.96 0.93 0.88 0.93 0.99 1.02 1.06 1.17 1.23 1.29 1.28 1.21 1.13 1.10 1.07 1.11 1.17 1.26 1.35 1.37 1.44 1.47 1.44 1.46 1.49
0.56 0.57 0.62 0.62 0.65 0.66 0.66 0.67 0.69 0.73 0.75 0.80 0.83 0.79 0.78 0.77 0.84 0.81 0.87 0.92 0.92 0.86 0.87 1.00 1.05 1.12 1.13 1.26 1.34 1.33 1.24 1.13 1.04 1.02 1.05 1.10 1.11 1.14 1.18 1.22 1.27 1.31 1.33 1.32
0.47 0.51 0.54 0.60 0.64 0.67 0.68 0.69 0.70 0.69 0.71 0.72 0.73 0.74 0.73 0.72 0.74 0.75 0.75 0.78 0.93 0.98 0.93 0.96 1.11 1.19 1.25 1.36 1.34 1.32 1.25 1.15 1.12 1.13 1.09 1.07 1.03 1.07 1.16 1.18 1.17 1.16 1.14 1.12
0.44 0.44 0.46 0.50 0.59 0.65 0.67 0.70 0.71 0.69 0.70 0.71 0.69 0.69 0.70 0.74 0.76 0.77 0.74 0.73 0.81 0.94 1.09 1.07 1.10 1.15 1.17 1.11 1.10 1.12 1.13 1.10 1.11 1.12 1.14 1.16 1.13 1.12 1.13 1.14 1.15 1.13 1.11 1.11
0.47 0.44 0.42 0.43 0.48 0.57 0.64 0.64 0.64 0.69 0.72 0.71 0.70 0.70 0.69 0.69 0.75 0.76 0.79 0.76 0.83 0.89 0.93 1.03 1.05 1.12 1.18 1.19 1.21 1.19 1.19 1.18 1.15 1.11 1.06 1.11 1.03 1.23 1.17 1.16 1.14 1.13 1.13 1.13
0.46 0.50 0.46 0.43 0.43 0.47 0.57 0.61 0.60 0.59 0.64 0.70 0.70 0.71 0.72 0.71 0.73 0.68 0.67 0.82 0.87 0.90 0.92 0.98 1.08 1.09 1.21 1.21 1.18 1.06 1.04 1.05 1.04 1.03 1.05 0.98 1.17 1.18 1.16 1.19 1.17 1.16 1.13 1.10
0.45 0.47 0.48 0.46 0.45 0.44 0.41 0.46 0.54 0.55 0.57 0.59 0.63 0.69 0.71 0.68 0.69 0.77 0.79 0.81 0.86 0.87 0.86 0.89 0.96 1.04 1.02 0.97 1.03 1.00 0.93 0.99 1.00 1.00 1.02 1.12 1.13 1.13 1.17 1.09 1.05 1.03 1.01 0.98
0.43 0.43 0.44 0.42 0.40 0.34 0.35 0.39 0.41 0.45 0.47 0.49 0.52 0.58 0.63 0.67 0.65 0.67 0.71 0.76 0.80 0.84 0.87 0.89 0.90 0.92 0.98 1.00 1.02 0.99 0.98 1.02 1.04 1.06 1.07 1.05 1.09 1.08 1.05 1.02 1.00 0.93 0.92 0.90
0.39 0.38 0.38 0.39 0.35 0.34 0.35 0.35 0.33 0.35 0.36 0.38 0.42 0.46 0.51 0.56 0.58 0.61 0.64 0.67 0.70 0.76 0.80 0.85 0.88 0.90 0.91 0.91 0.92 0.94 0.94 0.96 0.97 0.99 0.99 1.02 1.02 1.00 1.03 0.97 0.90 0.85 0.78 0.76
0.39 0.39 0.38 0.37 0.37 0.36 0.36 0.34 0.33 0.33 0.35 0.36 0.37 0.41 0.42 0.44 0.50 0.52 0.57 0.59 0.58 0.61 0.69 0.73 0.77 0.81 0.84 0.86 0.87 0.88 0.91 0.92 0.93 0.93 0.94 0.91 0.88 0.89 0.88 0.84 0.78 0.77 0.74 0.70

GFSNGP_prec_pwat_048.txt.gz
Precipitable_Water
0.34 0.37 0.42 0.40 0.45 0.49 0.44 0.44 0.37 0.38 0.32 0.34 0.40 0.37 0.33 0.39 0.45 0.48 0.47 0.48 0.58 0.69 0.80 0.93 1.17 1.23 1.37 1.39 1.39 1.38 1.28 1.31 1.25 1.25 1.28 1.27 1.24 1.22 1.21 1.20 1.18 1.15 1.07 1.04
0.32 0.35 0.40 0.38 0.45 0.50 0.47 0.47 0.44 0.41 0.34 0.40 0.48 0.48 0.47 0.50 0.51 0.52 0.52 0.49 0.52 0.63 0.75 0.88 1.08 1.14 1.25 1.37 1.36 1.40 1.21 1.24 1.32 1.28 1.23 1.18 1.16 1.14 1.16 1.16 1.16 1.15 1.09 1.04
0.29 0.35 0.39 0.36 0.41 0.49 0.52 0.52 0.51 0.38 0.42 0.51 0.56 0.57 0.57 0.57 0.59 0.55 0.54 0.48 0.41 0.54 0.71 0.83 1.00 1.09 1.17 1.28 1.43 1.33 1.05 1.09 1.15 1.18 1.14 1.12 1.12 1.10 1.07 1.07 1.13 1.11 1.10 1.10
0.32 0.36 0.28 0.47 0.58 0.57 0.53 0.56 0.58 0.55 0.56 0.66 0.69 0.75 0.74 0.76 0.68 0.70 0.75 0.61 0.58 0.66 0.76 0.83 1.00 1.10 1.25 1.31 1.37 1.27 1.04 1.09 1.14 1.10 1.07 1.11 1.11 1.09 1.09 1.11 1.07 1.09 1.09 1.08
0.30 0.33 0.43 0.53 0.59 0.55 0.52 0.52 0.65 0.63 0.64 0.72 0.78 0.80 0.78 0.88 0.91 0.91 0.86 0.77 0.75 0.77 0.87 0.94 1.05 1.17 1.24 1.32 1.25 1.11 1.11 1.16 1.23 1.19 1.15 1.18 1.17 1.16 1.18 1.20 1.19 1.16 1.16 1.15
0.35 0.34 0.34 0.54 0.64 0.70 0.66 0.48 0.70 0.74 0.70 0.72 0.78 0.59 0.72 0.92 0.98 1.02 0.92 0.85 0.78 0.84 0.96 1.02 1.14 1.24 1.25 1.28 1.18 1.05 1.09 1.25 1.42 1.48 1.46 1.42 1.46 1.49 1.53 1.54 1.49 1.54 1.51 1.49
0.33 0.38 0.48 0.67 0.69 0.72 0.46 0.50 0.71 0.76 0.72 0.71 0.70 0.74 0.90 1.03 1.05 1.13 1.07 1.01 1.03 1.00 0.97 1.04 1.17 1.26 1.27 1.32 1.15 1.22 1.39 1.39 1.47 1.53 1.56 1.61 1.65 1.69 1.68 1.70 1.72 1.68 1.63 1.65
0.37 0.39 0.39 0.73 0.70 0.55 0.62 0.71 0.74 0.75 0.72 0.71 0.75 0.83 0.95 1.03 1.08 1.14 1.17 1.15 1.20 1.19 1.17 1.17 1.24 1.34 1.30 1.33 1.40 1.47 1.47 1.42 1.46 1.53 1.62 1.68 1.69 1.76 1.75 1.72 1.67 1.64 1.66 1.70
0.43 0.47 0.66 0.74 0.74 0.77 0.78 0.74 0.76 0.76 0.76 0.75 0.77 0.84 0.90 0.98 1.12 1.23 1.30 1.31 1.39 1.33 1.34 1.34 1.38 1.44 1.38 1.50 1.58 1.56 1.54 1.49 1.52 1.52 1.63 1.61 1.66 1.65 1.60 1.62 1.55 1.49 1.45 1.43
0.50 0.59 0.64 0.72 0.80 0.80 0.83 0.81 0.82 0.84 0.81 0.78 0.78 0.83 0.86 0.91 1.05 1.19 1.29 1.33 1.40 1.38 1.34 1.41 1.54 1.58 1.60 1.68 1.76 1.74 1.64 1.63 1.63 1.58 1.51 1.62 1.65 1.62 1.61 1.55 1.50 1.42 1.36 1.33
0.53 0.60 0.67 0.73 0.79 0.81 0.82 0.84 0.84 0.86 0.84 0.81 0.80 0.82 0.89 0.87 0.88 1.00 1.18 1.32 1.40 1.39 1.38 1.39 1.50 1.55 1.64 1.68 1.70 1.64 1.67 1.65 1.63 1.60 1.56 1.56 1.58 1.63 1.63 1.71 1.64 1.50 1.47 1.50
0.50 0.66 0.67 0.70 0.82 0.93 0.84 0.81 0.85 0.84 0.83 0.85 0.83 0.79 0.85 0.89 0.87 0.86 0.93 1.13 1.28 1.40 1.44 1.45 1.48 1.47 1.52 1.54 1.48 1.46 1.44 1.47 1.46 1.44 1.40 1.47 1.48 1.48 1.62 1.63 1.64 1.73 1.74 1.65
0.60 0.76 0.74 0.78 0.84 0.96 0.90 0.87 0.86 0.86 0.87 0.82 0.87 0.85 0.80 0.84 0.86 0.86 0.85 0.88 1.02 1.19 1.36 1.43 1.42 1.37 1.36 1.30 1.23 1.13 1.11 1.14 1.19 1.21 1.25 1.24 1.22 1.21 1.18 1.35 1.48 1.57 1.65 1.63
0.75 0.72 0.68 0.73 0.70 0.84 0.89 0.95 0.96 0.98 0.96 0.96 0.96 0.94 0.89 0.86 0.88 0.86 0.83 0.87 0.94 0.96 0.97 1.18 1.33 1.34 1.31 1.29 1.21 1.10 1.08 1.04 0.98 0.96 1.03 1.14 1.15 1.13 1.14 1.11 1.13 1.21 1.37 1.47
0.67 0.73 0.67 0.72 0.75 0.76 0.79 0.81 0.79 0.85 0.91 1.02 1.03 0.99 0.92 0.87 0.90 0.91 0.92 0.91 0.90 0.84 0.81 0.84 0.91 1.18 1.35 1.32 1.26 1.20 1.14 1.15 1.15 1.16 1.16 1.21 1.28 1.29 1.27 1.21 1.18 1.21 1.27 1.34
0.60 0.64 0.69 0.63 0.63 0.69 0.71 0.73 0.70 0.73 0.83 0.87 1.03 1.06 1.00 0.94 0.99 1.04 1.04 1.00 0.88 0.85 0.89 0.84 0.80 0.92 1.18 1.33 1.28 1.20 1.16 1.17 1.21 1.24 1.28 1.30 1.36 1.38 1.32 1.26 1.23 1.22 1.17 1.17
0.48 0.47 0.54 0.58 0.61 0.62 0.64 0.69 0.72 0.74 0.78 0.80 0.82 1.05 1.12 1.08 1.02 1.00 1.00 1.04 1.02 0.96 0.95 0.92 0.87 0.87 0.93 1.19 1.29 1.23 1.18 1.16 1.15 1.16 1.27 1.38 1.38 1.41 1.41 1.32 1.31 1.30 1.30 1.39
0.50 0.50 0.53 0.59 0.61 0.61 0.64 0.66 0.67 0.69 0.70 0.77 0.82 0.84 0.88 1.06 1.07 1.05 1.07 1.06 1.03 0.99 1.01 1.01 1.03 0.96 0.94 1.02 1.22 1.27 1.20 1.15 1.17 1.14 1.17 1.23 1.30 1.37 1.35 1.35 1.39 1.39 1.37 1.44
0.46 0.43 0.44 0.47 0.56 0.60 0.62 0.63 0.65 0.67 0.70 0.70 0.69 0.71 0.76 0.79 0.87 1.02 1.08 1.10 1.07 1.00 0.97 1.09 1.09 1.11 1.02 0.99 0.98 1.08 1.16 1.15 1.19 1.18 1.15 1.20 1.22 1.20 1.13 1.10 1.11 1.16 1.20 1.24
0.48 0.46 0.44 0.43 0.46 0.53 0.55 0.62 0.66 0.65 0.67 0.70 0.71 0.69 0.68 0.71 0.77 0.81 0.93 0.93 1.00 1.09 1.16 1.09 1.09 1.12 1.16 1.21 1.24 1.25 1.22 1.25 1.25 1.24 1.18 1.15 1.16 1.14 1.09 1.05 1.04 1.04 1.07 1.09
0.47 0.45 0.43 0.41 0.42 0.44 0.50 0.57 0.59 0.62 0.67 0.69 0.67 0.66 0.66 0.70 0.74 0.77 0.75 0.77 0.89 0.97 1.04 1.09 1.07 1.10 1.19 1.32 1.39 1.36 1.31 1.26 1.24 1.20 1.16 1.14 1.20 1.23 1.16 1.08 1.06 1.05 1.03 1.02
0.47 0.47 0.42 0.40 0.39 0.39 0.42 0.47 0.54 0.57 0.62 0.67 0.69 0.69 0.69 0.69 0.72 0.74 0.78 0.75 0.81 0.84 0.86 0.88 0.95 1.01 1.08 1.21 1.29 1.29 1.26 1.17 1.12 1.12 1.19 1.18 1.23 1.25 1.13 1.14 1.06 1.08 1.06 1.03
0.46 0.46 0.46 0.42 0.38 0.39 0.40 0.42 0.45 0.49 0.54 0.59 0.62 0.66 0.67 0.69 0.71 0.68 0.68 0.78 0.79 0.82 0.81 0.84 0.85 0.87 0.88 0.98 1.04 1.06 1.08 1.11 1.13 1.22 1.21 1.25 1.30 1.21 1.19 1.11 1.01 0.97 0.98 1.02
0.45 0.44 0.44 0.47 0.43 0.39 0.34 0.36 0.40 0.43 0.45 0.48 0.56 0.61 0.62 0.62 0.68 0.73 0.77 0.78 0.81 0.81 0.82 0.84 0.86 0.88 0.92 0.94 0.93 0.96 1.03 1.14 1.23 1.21 1.18 1.17 1.19 1.23 1.15 1.09 0.93 0.89 0.87 0.86
0.42 0.42 0.43 0.42 0.37 0.34 0.34 0.35 0.37 0.36 0.36 0.39 0.42 0.48 0.54 0.61 0.60 0.64 0.71 0.76 0.78 0.79 0.81 0.86 0.87 0.86 0.89 0.91 0.94 0.95 0.96 0.98 1.02 1.03 1.10 1.04 1.05 1.03 1.03 1.02 0.94 0.95 0.87 0.83
0.39 0.38 0.39 0.38 0.36 0.36 0.35 0.34 0.33 0.34 0.34 0.35 0.37 0.38 0.44 0.49 0.54 0.59 0.61 0.67 0.70 0.75 0.78 0.82 0.85 0.86 0.85 0.84 0.84 0.87 0.89 0.89 0.88 0.93 0.98 0.95 0.95 0.97 0.96 0.93 0.88 0.82 0.82 0.81
0.37 0.38 0.38 0.36 0.37 0.37 0.37 0.35 0.34 0.35 0.36 0.37 0.36 0.38 0.40 0.43 0.45 0.48 0.53 0.57 0.61 0.63 0.69 0.74 0.79 0.81 0.82 0.82 0.80 0.81 0.82 0.82 0.84 0.86 0.86 0.88 0.90 0.90 0.89 0.86 0.80 0.76 0.76 0.75